Weather History for Cairns, QU

Change the Weather History Date:

Monday, October 8, 2012

  Actual Average Record
Temperature  
Mean Temperature 72 °F -  
Max Temperature 82 °F 86 °F 87 °F (2000)
Min Temperature 61 °F 70 °F 60 °F (2013)
Cooling Degree Days 6    
Growing Degree Days 22 (Base 50)    
Moisture  
Dew Point 65 °F    
Average Humidity 77    
Maximum Humidity 100    
Minimum Humidity 50    
Precipitation  
Precipitation 0.00 in 0.08 in - ()
Sea Level Pressure  
Sea Level Pressure 29.87 in    
Wind  
Wind Speed 3 mph ()    
Max Wind Speed 10 mph    
Max Gust Speed -    
Visibility 7.4 miles    
Events      
Averages and records for this station are not official NWS values.
T = Trace of Precipitation, MM = Missing Value Source: Averaged Metar Reports

Daily Weather History Graph

Daily Weather History Graph

Search for Another Location

Airport:

Trip Planner

Search our weather history database for the weather conditions in past years. The results will help you decide how hot, cold, wet, or windy it might be!

Date:

Astronomy

Oct. 08, 2012 Rise Set
Actual Time 5:53 AM AEST 6:15 PM AEST
Civil Twilight 5:32 AM AEST 6:37 PM AEST
Nautical Twilight 5:06 AM AEST 7:02 PM AEST
Astronomical Twilight 4:41 AM AEST 7:28 PM AEST
Moon 12:04 AM AEST (10/8) 11:36 AM AEST (10/8)
Length of Visible Light 13h 04m
Length of Day
12h 21m
Waning Gibbous, 52% of the Moon is Illuminated
Oct 8
Waning Gibbous
Oct 8
Last Quarter
Oct 15
New
Oct 22
First Quarter
Oct 30
Full

Hourly Weather History & Observations

Time (AEST) Temp. Heat Index Dew Point Humidity Pressure Visibility Wind Dir Wind Speed Gust Speed Precip Events Conditions
12:00 AM 66 °F - 64 °F 91% 29.91 in - Calm Calm - -  
12:00 AM 66.2 °F - 64.4 °F 94% 29.89 in - Calm Calm - N/A   Clear
12:30 AM 66.2 °F - 64.4 °F 94% 29.89 in - Calm Calm - N/A   Clear
1:00 AM 67 °F - 64 °F 88% 29.90 in - West 2.3 mph - -  
1:00 AM 66.2 °F - 64.4 °F 94% 29.89 in - West 2.3 mph - N/A   Clear
1:30 AM 66.2 °F - 62.6 °F 88% 29.89 in - Calm Calm - N/A   Clear
2:00 AM 64.4 °F - 64.4 °F 100% 29.86 in - WSW 2.3 mph - N/A   Clear
2:30 AM 64.4 °F - 64.4 °F 100% 29.86 in 6.2 mi Calm Calm - N/A   Partly Cloudy
3:00 AM 64 °F - 63 °F 95% 29.87 in - Calm Calm - -  
3:00 AM 64.4 °F - 62.6 °F 94% 29.86 in 6.2 mi Calm Calm - N/A   Partly Cloudy
3:30 AM 66.2 °F - 62.6 °F 88% 29.86 in 6.2 mi SSE 3.5 mph - N/A   Partly Cloudy
4:00 AM 64 °F - 63 °F 95% 29.88 in - WNW 3.5 mph - -  
4:00 AM 64.4 °F - 62.6 °F 94% 29.86 in 6.2 mi WNW 3.5 mph - N/A   Partly Cloudy
4:30 AM 62.6 °F - 60.8 °F 94% 29.89 in 6.2 mi Calm Calm - N/A   Partly Cloudy
5:00 AM 62.6 °F - 62.6 °F 100% 29.89 in 6.2 mi Calm Calm - N/A   Partly Cloudy
5:30 AM 62.6 °F - 62.6 °F 100% 29.89 in 6.2 mi Calm Calm - N/A   Partly Cloudy
6:00 AM 64.4 °F - 62.6 °F 94% 29.89 in 6.2 mi Calm Calm - N/A   Partly Cloudy
6:30 AM 64.4 °F - 62.6 °F 94% 29.89 in 6.2 mi Calm Calm - N/A   Partly Cloudy
7:00 AM 68 °F - 64 °F 82% 29.93 in - Calm Calm - -  
7:00 AM 68.0 °F - 64.4 °F 88% 29.92 in 6.2 mi Calm Calm - N/A   Partly Cloudy
7:30 AM 69.8 °F - 64.4 °F 83% 29.92 in 6.2 mi Calm Calm - N/A   Partly Cloudy
8:00 AM 75.2 °F - 66.2 °F 73% 29.92 in 6.2 mi North 1.2 mph - N/A   Partly Cloudy
8:30 AM 77.0 °F - 64.4 °F 65% 29.92 in 6.2 mi SE 6.9 mph - N/A   Partly Cloudy
9:00 AM 78 °F - 65 °F 56% 29.94 in 19 mi East 4.6 mph - -   Partly Cloudy
9:00 AM 78.8 °F - 64.4 °F 61% 29.92 in 6.2 mi East 4.6 mph - N/A   Partly Cloudy
9:30 AM 80.6 °F 82.3 °F 64.4 °F 58% 29.92 in 6.2 mi North 1.2 mph - N/A   Partly Cloudy
10:00 AM 79 °F - 65 °F 52% 29.94 in - NNE 8.1 mph - -  
10:00 AM 78.8 °F - 64.4 °F 61% 29.92 in 6.2 mi NNE 8.1 mph - N/A   Partly Cloudy
10:30 AM 78.8 °F - 64.4 °F 61% 29.92 in 6.2 mi NE 10.4 mph - N/A   Partly Cloudy
11:00 AM 80.6 °F 82.7 °F 66.2 °F 61% 29.92 in 6.2 mi NE 10.4 mph - N/A   Partly Cloudy
11:30 AM 80.6 °F 82.3 °F 64.4 °F 58% 29.89 in 6.2 mi NNE 10.4 mph - N/A   Partly Cloudy
12:00 PM 80 °F - 65 °F 51% 29.89 in 19 mi NNE 10.4 mph - -   Partly Cloudy
12:00 PM 80.6 °F 82.3 °F 64.4 °F 58% 29.89 in 6.2 mi NNE 10.4 mph - N/A   Partly Cloudy
12:30 PM 80.6 °F 82.7 °F 66.2 °F 61% 29.86 in 6.2 mi NNE 10.4 mph - N/A   Partly Cloudy
1:00 PM 82 °F - 67 °F 50% 29.87 in - NNE 10.4 mph - -  
1:00 PM 82.4 °F 84.6 °F 66.2 °F 58% 29.86 in 6.2 mi NNE 10.4 mph - N/A   Partly Cloudy
1:30 PM 80.6 °F 82.7 °F 66.2 °F 61% 29.83 in 6.2 mi NNE 10.4 mph - N/A   Partly Cloudy
2:00 PM 80.6 °F 82.7 °F 66.2 °F 61% 29.83 in 6.2 mi NE 10.4 mph - N/A   Partly Cloudy
2:30 PM 78.8 °F - 64.4 °F 61% 29.83 in 6.2 mi NE 10.4 mph - N/A   Partly Cloudy
3:00 PM 79 °F - 65 °F 53% 29.82 in 19 mi NE 9.2 mph - -   Partly Cloudy
3:00 PM 78.8 °F - 64.4 °F 61% 29.80 in 6.2 mi NE 9.2 mph - N/A   Partly Cloudy
3:30 PM 78.8 °F - 64.4 °F 61% 29.80 in - NE 9.2 mph - N/A   Clear
4:00 PM 78 °F - 65 °F 55% 29.82 in - NNE 8.1 mph - -  
4:00 PM 78.8 °F - 64.4 °F 61% 29.80 in - NNE 8.1 mph - N/A   Clear
4:30 PM 77.0 °F - 64.4 °F 65% 29.80 in - NNE 6.9 mph - N/A   Clear
5:00 PM 77.0 °F - 64.4 °F 65% 29.80 in - North 6.9 mph - N/A   Clear
5:30 PM 77.0 °F - 64.4 °F 65% 29.80 in - North 5.8 mph - N/A   Clear
6:00 PM 75 °F - 65 °F 63% 29.81 in - North 4.6 mph - -  
6:00 PM 75.2 °F - 64.4 °F 69% 29.80 in - North 4.6 mph - N/A   Clear
6:30 PM 73.4 °F - 66.2 °F 78% 29.80 in - North 1.2 mph - N/A   Clear
7:00 PM 71 °F - 66 °F 80% 29.83 in - Calm Calm - -  
7:00 PM 71.6 °F - 66.2 °F 83% 29.80 in - Calm Calm - N/A   Clear
7:30 PM 69.8 °F - 66.2 °F 88% 29.83 in - Calm Calm - N/A   Clear
8:00 PM 71.6 °F - 66.2 °F 83% 29.83 in - WSW 1.2 mph - N/A   Clear
8:30 PM 69.8 °F - 66.2 °F 88% 29.83 in 6.2 mi Calm Calm - N/A   Partly Cloudy
9:00 PM 68 °F - 65 °F 86% 29.85 in - Calm Calm - -  
9:00 PM 68.0 °F - 64.4 °F 88% 29.83 in 6.2 mi Calm Calm - N/A   Partly Cloudy
9:30 PM 68.0 °F - 66.2 °F 94% 29.86 in - Calm Calm - N/A   Clear
10:00 PM 67 °F - 65 °F 91% 29.87 in - Calm Calm - -  
10:00 PM 66.2 °F - 64.4 °F 94% 29.86 in - Calm Calm - N/A   Clear
10:30 PM 66.2 °F - 64.4 °F 94% 29.86 in - Calm Calm - N/A   Clear
11:00 PM 66.2 °F - 64.4 °F 94% 29.86 in - Calm Calm - N/A   Clear
11:30 PM 66.2 °F - 64.4 °F 94% 29.86 in - Calm Calm - N/A   Clear